Location: Peterborough
(44.3091°N, 78.3197°W)
Time: 04:10:04
(UTC-04:00)

Tiros 1 - Pass Details

Date: 09 April 2023
Orbit: 627 x 661 km, 48.4° (Epoch: 09 June)

Event Time Altitude Azimuth Distance (km) Brightness Sun altitude
Rises 00:28:37 0° 219° (SW) 2,935 - -37.2°
Reaches altitude 10° 00:31:03 10° 212° (SSW) 2,035 - -37.3°
Maximum altitude 00:35:24 39° 144° (SE) 979 - -37.4°
Drops below altitude 10° 00:39:49 10° 76° (ENE) 2,064 - -37.6°
Sets 00:42:17 0° 69° (ENE) 2,982 - -37.7°
